ICESAT-2

Last updated on Thu Oct 30 2025 00:02:32 GMT+0000 (Coordinated Universal Time)

1 43613U 18070A 25302.47266350 .00018288 00000+0 66214-3 0 9996 2 43613 92.0025 228.7919 0006660 49.8537 310.3294 15.28325231397226
UTC large
Height (km)
Speed (km/s)
/
Latitude / Longitude
Inclination (degrees)
Orbital Period (minutes)
Azimuth
Elevation
Range (km)
Doppler Factor

Next 0 passes for location: London (51.5072 / 0.1276)

Sorry there are no passes over London.